Location: Lawrence
(38.9720°N, 95.2350°W)
Time: 01:19:14
(UTC-05:00)

Amateur Radio Satellites - All Passes

Search period start: 23 September 2014 00:49
Search period end: 24 September 2014 00:49
Location: Lawrence, 38.9720°N, 95.2350°W

Satellite Date Start Highest point End Downlink Frequencies (MHz)
Time Altitude Azimuth
UOSAT-12 23 Sep 01:18:37 01:22:03 20° 315° (NW) 01:25:32 437.025 FM, 437.400 FM
ISS 23 Sep 01:21:34 01:24:36 33° 135° (SE) 01:27:38 145.800 FM
PANSAT 23 Sep 01:38:38 01:41:06 16° 175° (S) 01:43:33 not established
Saudisat 1A 23 Sep 02:10:16 02:14:40 70° 241° (WSW) 02:19:02 436.775 MHz
Uribyol 2 23 Sep 02:10:40 02:12:06 11° 90° (E) 02:13:32 436.500 FM
Oscar 19 23 Sep 02:13:36 02:18:04 29° 96° (E) 02:22:29 437.125 CW, 437.150 USB
KITSAT 1 23 Sep 02:20:38 02:25:34 17° 33° (NNE) 02:30:29 435.175 FM
AO-Echo 23 Sep 02:36:34 02:40:30 24° 95° (E) 02:44:30 ?
RS-15 23 Sep 02:38:04 02:45:38 22° 101° (E) 02:53:03 29.354 - 29.394 USB, Beacon 29.352 USB
AO-27 23 Sep 02:41:09 02:45:13 23° 94° (E) 02:49:16 436.795 MHz FM
Oscar 16 23 Sep 02:52:34 02:57:45 73° 102° (ESE) 03:02:53 437.025 USB, Beacon 2401.1428
ISS 23 Sep 02:58:23 03:01:19 28° 331° (NNW) 03:04:15 145.800 FM
PANSAT 23 Sep 03:18:23 03:20:37 15° 188° (S) 03:22:51 not established
JAS-1B 23 Sep 03:41:07 03:46:49 89° 285° (WNW) 03:52:41 435.800 - 435.900 CW/SSB
ITAMSAT 1 23 Sep 03:43:38 03:48:53 89° 104° (ESE) 03:54:07 435.822 SSB
Uribyol 2 23 Sep 03:46:54 03:52:08 80° 285° (WNW) 03:57:22 436.500 FM
Oscar 19 23 Sep 03:52:50 03:57:21 32° 292° (WNW) 04:01:50 437.125 CW, 437.150 USB
Gurwin Techsat 1B 23 Sep 03:53:52 03:59:05 54° 100° (E) 04:04:15 435.225 FM
OPAL 23 Sep 04:09:39 04:13:35 22° 63° (ENE) 04:17:31 ?
KITSAT 1 23 Sep 04:14:47 04:22:48 62° 56° (ENE) 04:30:44 435.175 FM
AO-Echo 23 Sep 04:14:51 04:19:19 36° 290° (WNW) 04:23:53 ?
AO-27 23 Sep 04:19:59 04:24:51 41° 290° (WNW) 04:29:43 436.795 MHz FM
AO-7 23 Sep 04:20:06 04:25:45 20° 92° (E) 04:31:23 29.400 - 29.500 MHz
TMSAT-1 23 Sep 04:28:22 04:33:43 84° 104° (ESE) 04:39:01 436.925 FM
Oscar 16 23 Sep 04:33:55 04:36:27 14° 299° (WNW) 04:38:58 437.025 USB, Beacon 2401.1428
ISS 23 Sep 04:38:09 04:38:54 11° 351° (N) 04:39:40 145.800 FM
RS-15 23 Sep 04:45:22 04:56:29 87° 300° (WNW) 05:07:28 29.354 - 29.394 USB, Beacon 29.352 USB
SO-50 23 Sep 05:13:23 05:14:37 11° 38° (NE) 05:15:52 436.795 FM
ITAMSAT 1 23 Sep 05:25:58 05:27:36 11° 301° (WNW) 05:29:13 435.822 SSB
Uosat F 23 Sep 05:27:59 05:32:54 51° 100° (E) 05:37:47 435.120 FM
JAS-2 23 Sep 05:33:16 05:35:31 12° 90° (E) 05:37:49 435.800 - 435.900 CW/SSB, 435.910 FM
Gurwin Techsat 1B 23 Sep 05:34:58 05:38:36 19° 296° (WNW) 05:42:13 435.225 FM
JAS-1B 23 Sep 05:35:19 05:36:38 11° 303° (WNW) 05:37:56 435.800 - 435.900 CW/SSB
OPAL 23 Sep 05:47:09 05:52:06 46° 259° (WSW) 05:57:08 ?
TMSAT-1 23 Sep 06:10:45 06:12:53 13° 300° (WNW) 06:15:00 436.925 FM
AO-7 23 Sep 06:11:01 06:19:19 81° 290° (WNW) 06:27:36 29.400 - 29.500 MHz
KITSAT 1 23 Sep 06:11:03 06:17:37 29° 255° (WSW) 06:24:11 435.175 FM
ISS 23 Sep 06:15:46 06:16:51 11° 12° (NNE) 06:17:57 145.800 FM
STRAND 1 23 Sep 06:34:55 06:39:20 31° 68° (ENE) 06:43:46 ?
SO-50 23 Sep 06:51:18 06:56:06 65° 57° (ENE) 07:00:56 436.795 FM
RS-15 23 Sep 07:01:28 07:10:31 29° 326° (NNW) 07:19:37 29.354 - 29.394 USB, Beacon 29.352 USB
Uosat F 23 Sep 07:07:53 07:11:16 18° 296° (WNW) 07:14:38 435.120 FM
JAS-2 23 Sep 07:14:48 07:21:05 83° 104° (ESE) 07:28:13 435.800 - 435.900 CW/SSB, 435.910 FM
Hamsat 23 Sep 07:17:44 07:21:59 88° 101° (E) 07:26:11 145.90 MHz
SO-67 23 Sep 07:42:37 07:45:05 18° 94° (E) 07:47:33 435.3500 MHz FM
ISS 23 Sep 07:51:18 07:54:22 33° 31° (NNE) 07:57:25 145.800 FM
MaSat-1 23 Sep 07:52:58 07:57:52 60° 111° (ESE) 08:02:42 437.345 MHz
AO-7 23 Sep 08:05:49 08:10:51 18° 309° (NW) 08:15:53 29.400 - 29.500 MHz
UOSAT-12 23 Sep 08:08:00 08:12:19 34° 51° (NE) 08:16:34 437.025 FM, 437.400 FM
STRAND 1 23 Sep 08:14:04 08:18:27 29° 264° (W) 08:22:53 ?
SO-50 23 Sep 08:33:35 08:36:09 14° 252° (WSW) 08:38:43 436.795 FM
JAS-2 23 Sep 09:01:50 09:05:35 17° 298° (WNW) 09:09:34 435.800 - 435.900 CW/SSB, 435.910 FM
SO-67 23 Sep 09:15:21 09:18:03 22° 289° (WNW) 09:20:44 435.3500 MHz FM
RS-15 23 Sep 09:21:48 09:28:15 17° 2° (N) 09:34:46 29.354 - 29.394 USB, Beacon 29.352 USB
ISS 23 Sep 09:28:09 09:30:59 26° 227° (SW) 09:33:48 145.800 FM
MaSat-1 23 Sep 09:31:29 09:34:54 18° 307° (NW) 09:38:16 437.345 MHz
UOSAT-12 23 Sep 09:48:23 09:52:20 27° 248° (WSW) 09:56:12 437.025 FM, 437.400 FM
HO-68 23 Sep 10:20:19 10:27:29 68° 103° (ESE) 10:34:37 435.675 MHz FM
Oscar 11 23 Sep 10:40:37 10:44:42 39° 98° (E) 10:48:43 145.825 FM, Beacon 2401.500 USB
FUNcube-1 23 Sep 10:42:19 10:45:21 17° 92° (E) 10:48:21 145.950 - 145.970 MHz USB
PCSat 23 Sep 10:46:14 10:49:51 18° 105° (ESE) 10:53:29 145.825 MHz
UKube-1 23 Sep 11:01:13 11:05:36 89° 104° (ESE) 11:09:58 145.840 MHz, 145.915 MHz
ZACube-1 23 Sep 11:24:27 11:28:57 50° 99° (E) 11:33:21 437.345 MHz
RS-15 23 Sep 11:36:08 11:45:42 32° 37° (NE) 11:55:31 29.354 - 29.394 USB, Beacon 29.352 USB
Sapphire 23 Sep 12:00:45 12:06:08 80° 116° (ESE) 12:11:34 437.095 MHz 1200 baud AX-25 AFSK
HO-68 23 Sep 12:09:10 12:14:33 24° 301° (WNW) 12:19:56 435.675 MHz FM
FUNcube-1 23 Sep 12:17:34 12:21:56 43° 288° (WNW) 12:26:12 145.950 - 145.970 MHz USB
Oscar 11 23 Sep 12:17:40 12:20:34 18° 294° (WNW) 12:23:27 145.825 FM, Beacon 2401.500 USB
PCSat 23 Sep 12:27:27 12:32:46 57° 301° (WNW) 12:38:07 145.825 MHz
Oscar 16 23 Sep 12:33:11 12:34:52 12° 60° (ENE) 12:36:33 437.025 USB, Beacon 2401.1428
JAS-1B 23 Sep 12:38:27 12:41:35 13° 58° (ENE) 12:44:33 435.800 - 435.900 CW/SSB
ZACube-1 23 Sep 13:02:08 13:04:54 16° 295° (WNW) 13:07:39 437.345 MHz
ITAMSAT 1 23 Sep 13:24:02 13:26:49 15° 61° (ENE) 13:29:36 435.822 SSB
Uribyol 2 23 Sep 13:26:40 13:29:51 17° 62° (ENE) 13:33:03 436.500 FM
Oscar 19 23 Sep 13:29:12 13:33:57 38° 70° (ENE) 13:38:44 437.125 CW, 437.150 USB
Sapphire 23 Sep 13:46:49 13:50:13 17° 315° (NW) 13:53:38 437.095 MHz 1200 baud AX-25 AFSK
RS-15 23 Sep 13:48:15 13:59:26 84° 242° (WSW) 14:11:05 29.354 - 29.394 USB, Beacon 29.352 USB
AO-Echo 23 Sep 13:48:53 13:52:45 26° 68° (ENE) 13:56:37 ?
AO-27 23 Sep 13:58:08 14:02:37 31° 68° (ENE) 14:07:08 436.795 MHz FM
Oscar 16 23 Sep 14:08:14 14:13:26 88° 256° (WSW) 14:18:40 437.025 USB, Beacon 2401.1428
TMSAT-1 23 Sep 14:11:12 14:13:59 15° 61° (ENE) 14:16:47 436.925 FM
PCSat 23 Sep 14:17:10 14:17:23 10° 322° (NW) 14:17:37 145.825 MHz
JAS-1B 23 Sep 14:22:57 14:31:21 73° 73° (ENE) 14:38:20 435.800 - 435.900 CW/SSB
ITAMSAT 1 23 Sep 15:00:34 15:05:42 69° 258° (WSW) 15:10:53 435.822 SSB
Uribyol 2 23 Sep 15:03:43 15:08:48 60° 259° (W) 15:13:57 436.500 FM
Oscar 19 23 Sep 15:09:11 15:13:22 24° 265° (W) 15:17:34 437.125 CW, 437.150 USB
Gurwin Techsat 1B 23 Sep 15:13:44 15:19:01 76° 75° (ENE) 15:24:20 435.225 FM
AO-7 23 Sep 15:17:58 15:24:34 28° 57° (ENE) 15:31:09 29.400 - 29.500 MHz
AO-Echo 23 Sep 15:27:19 15:31:25 29° 263° (W) 15:35:32 ?
AO-27 23 Sep 15:37:35 15:42:04 30° 264° (W) 15:46:36 436.795 MHz FM
TMSAT-1 23 Sep 15:48:00 15:53:16 72° 258° (WSW) 15:58:34 436.925 FM
RS-15 23 Sep 16:03:12 16:10:09 19° 260° (W) 16:17:17 29.354 - 29.394 USB, Beacon 29.352 USB
Saudisat 1A 23 Sep 16:15:35 16:19:40 39° 115° (ESE) 16:23:48 436.775 MHz
JAS-1B 23 Sep 16:16:18 16:22:11 21° 266° (W) 16:27:29 435.800 - 435.900 CW/SSB
Uosat F 23 Sep 16:40:02 16:44:57 63° 73° (ENE) 16:49:54 435.120 FM
Gurwin Techsat 1B 23 Sep 16:57:29 16:59:31 12° 270° (W) 17:01:34 435.225 FM
AO-7 23 Sep 17:08:25 17:16:40 68° 255° (WSW) 17:24:57 29.400 - 29.500 MHz
JAS-2 23 Sep 17:28:00 17:32:14 26° 66° (ENE) 17:36:30 435.800 - 435.900 CW/SSB, 435.910 FM
MaSat-1 23 Sep 17:47:21 17:50:59 88° 250° (WSW) 17:54:03 437.345 MHz
Saudisat 1A 23 Sep 17:55:54 17:59:23 22° 313° (NW) 18:02:53 436.775 MHz
OPAL 23 Sep 17:58:11 18:03:12 51° 102° (ESE) 18:08:06 ?
Hamsat 23 Sep 18:09:31 18:13:45 53° 74° (ENE) 18:17:59 145.90 MHz
Uosat F 23 Sep 18:21:42 18:24:09 14° 269° (W) 18:26:36 435.120 FM
KITSAT 1 23 Sep 18:41:30 18:49:11 50° 111° (ESE) 18:56:53 435.175 FM
STRAND 1 23 Sep 18:49:10 18:50:21 11° 90° (E) 18:51:33 ?
AO-7 23 Sep 19:09:28 19:10:48 10° 273° (W) 19:12:09 29.400 - 29.500 MHz
JAS-2 23 Sep 19:12:35 19:17:15 33° 263° (W) 19:21:55 435.800 - 435.900 CW/SSB, 435.910 FM
PCSat 23 Sep 19:34:44 19:37:43 15° 43° (NE) 19:40:42 145.825 MHz
OPAL 23 Sep 19:38:04 19:41:39 19° 299° (WNW) 19:45:11 ?
SO-67 23 Sep 19:46:05 19:49:32 84° 258° (WSW) 19:53:00 435.3500 MHz FM
Hamsat 23 Sep 19:48:07 19:49:59 13° 269° (W) 19:51:52 145.90 MHz
STRAND 1 23 Sep 20:24:57 20:30:06 80° 285° (WNW) 20:35:14 ?
KITSAT 1 23 Sep 20:37:18 20:44:44 39° 311° (NW) 20:52:12 435.175 FM
HO-68 23 Sep 20:47:32 20:54:12 45° 66° (ENE) 21:00:54 435.675 MHz FM
Sapphire 23 Sep 20:50:02 20:55:19 49° 57° (ENE) 21:00:33 437.095 MHz 1200 baud AX-25 AFSK
SO-50 23 Sep 21:05:56 21:09:39 26° 112° (ESE) 21:13:26 436.795 FM
PCSat 23 Sep 21:16:28 21:21:56 88° 63° (ENE) 21:27:21 145.825 MHz
Oscar 11 23 Sep 21:34:44 21:38:24 27° 69° (ENE) 21:42:06 145.825 FM, Beacon 2401.500 USB
FUNcube-1 23 Sep 21:38:49 21:40:48 13° 63° (ENE) 21:42:49 145.950 - 145.970 MHz USB
UKube-1 23 Sep 21:55:21 21:59:38 66° 74° (ENE) 22:03:57 145.840 MHz, 145.915 MHz
ZACube-1 23 Sep 22:19:47 22:23:48 35° 71° (ENE) 22:27:56 437.345 MHz
UOSAT-12 23 Sep 22:20:37 22:22:32 12° 107° (ESE) 22:24:28 437.025 FM, 437.400 FM
Sapphire 23 Sep 22:34:18 22:38:21 22° 254° (WSW) 22:42:23 437.095 MHz 1200 baud AX-25 AFSK
HO-68 23 Sep 22:35:42 22:41:58 33° 263° (W) 22:48:19 435.675 MHz FM
KITSAT 1 23 Sep 22:40:08 22:42:52 12° 337° (NNW) 22:45:36 435.175 FM
SO-50 23 Sep 22:46:01 22:50:03 32° 310° (NW) 22:54:13 436.795 FM
PCSat 23 Sep 23:03:13 23:04:31 11° 258° (WSW) 23:05:49 145.825 MHz
Oscar 11 23 Sep 23:10:56 23:14:31 25° 265° (W) 23:18:08 145.825 FM, Beacon 2401.500 USB
FUNcube-1 23 Sep 23:12:14 23:16:36 62° 260° (W) 23:21:08 145.950 - 145.970 MHz USB
ZACube-1 23 Sep 23:56:58 00:00:17 20° 267° (W) 00:03:41 437.345 MHz
UOSAT-12 23 Sep 23:57:28 00:02:03 68° 303° (WNW) 00:06:46 437.025 FM, 437.400 FM
ISS 24 Sep 00:33:26 00:35:49 18° 131° (SE) 00:38:12 145.800 FM
